Terminal Aerodrome Forecast
Issued by NWS La Crosse, WI

Home | Current Version | Previous Version | Text Only | Print | Product List | Glossary On
Versions: 1 2 3 4 5 6 7 8 9 10 11 12 13 14 15 16 17 18 19 20 21 22 23 24 25 26 27 28 29 30 31 32 33 34 35 36 37 38 39 40 41 42 43 44 45
000
FTUS43 KARX 250921 AAB
TAFRST
TAF AMD
KRST 250921Z 2509/2606 04011KT P6SM SCT008 BKN080
     FM251000 04014KT 6SM -SN OVC008
     FM251300 04014KT P6SM OVC010
     FM251600 04012KT P6SM OVC014
     FM251900 02010KT P6SM BKN020
     FM260000 VRB04KT P6SM BKN150=

USA.gov is the U.S. government's official web portal to all federal, state and local government web resources and services.